Flag for USA

Past Weather in Sedona, Arizona, USA — Yesterday and Last 2 Weeks

Now
72 °F

Clear.


Feels Like: 72 °F
Forecast: 91 / 64 °F
Wind: 15 mph from Northeast

Location: Sedona Airport
Current Time: Sep 29, 2020 at 11:31:20 pm
Latest Report: Sep 29, 2020 at 10:55 pm
Visibility: 10 mi
Pressure30.25 "Hg(26.08 "Hg at 1282m altitude)
Humidity: 10%
Dew Point: 12 °F
Location of SedonaLocation

Past Weather in Sedona — Graph

°F

Sedona Temperature Yesterday

Maximum temperature yesterday: 88 °F (at 2:15 pm)
Minimum temperature yesterday: 68 °F (at 1:15 am)
Average temperature yesterday: 76 °F

High & Low Weather Summary for the Past Weeks

 TemperatureHumidityPressure
High95 °F (Sep 16, 2:15 pm)47% (Sep 22, 4:15 pm)30.32 "Hg (Sep 22, 4:15 pm)
Low63 °F (Sep 27, 5:55 am)7% (Sep 16, 2:15 pm)30.04 "Hg (Sep 19, 4:55 pm)
Average78 °F19%30.17 "Hg
* Reported Sep 14 10:15 pm — Sep 29 10:15 pm, Sedona. Weather by CustomWeather, © 2020

Note: Actual official high and low records may vary slightly from our data, if they occured in-between our weather recording intervals... More about our weather records

Sedona Weather History for the Previous 24 Hours

Scroll right to see more
 ConditionsComfort  
Time TempWeatherWind HumidityBarometerVisibility
10:15 pm
Tue, Sep 29
72 °FClear.13 mph10%30.25 "Hg10 mi
9:55 pm73 °FClear.14 mph9%30.25 "Hg10 mi
9:35 pm73 °FClear.14 mph9%30.24 "Hg10 mi
6:35 pm81 °FClear.13 mph8%30.19 "Hg10 mi
6:15 pm82 °FClear.6 mph12%30.18 "Hg10 mi
5:55 pm84 °FSunny.No wind11%30.18 "Hg10 mi
5:15 pm88 °FSunny.3 mph10%30.18 "Hg10 mi
4:55 pm88 °FSunny.No wind11%30.18 "Hg10 mi
4:35 pm88 °FSunny.No wind11%30.18 "Hg10 mi
4:15 pm90 °FSunny.6 mph10%30.19 "Hg10 mi
3:55 pm90 °FSunny.3 mph10%30.19 "Hg10 mi
3:35 pm90 °FSunny.7 mph10%30.19 "Hg10 mi
3:15 pm88 °FSunny.No wind10%30.20 "Hg10 mi
2:55 pm90 °FSunny.7 mph9%30.21 "Hg10 mi
2:35 pm86 °FSunny.No wind10%30.21 "Hg10 mi
2:15 pm88 °FSunny.6 mph9%30.22 "Hg10 mi
1:55 pm88 °FSunny.5 mph9%30.23 "Hg10 mi
1:35 pm88 °FSunny.9 mph10%30.23 "Hg10 mi
1:15 pm88 °FSunny.3 mph9%30.25 "Hg10 mi
12:55 pm88 °FSunny.8 mph9%30.25 "Hg10 mi
12:35 pm86 °FSunny.No wind9%30.26 "Hg10 mi
12:15 pm86 °FSunny.3 mph9%30.27 "Hg10 mi
11:55 am86 °FSunny.7 mph9%30.28 "Hg10 mi
11:35 am84 °FSunny.No wind9%30.29 "Hg10 mi
11:15 am86 °FSunny.6 mph8%30.30 "Hg10 mi
10:55 am84 °FSunny.5 mph9%30.30 "Hg10 mi
10:35 am81 °FSunny.6 mph9%30.31 "Hg10 mi
10:15 am81 °FSunny.5 mph9%30.32 "Hg10 mi
9:55 am79 °FSunny.5 mph10%30.32 "Hg10 mi
9:35 am77 °FSunny.3 mph11%30.32 "Hg10 mi
9:15 am75 °FSunny.5 mph10%30.32 "Hg10 mi
8:55 am73 °FSunny.5 mph10%30.32 "Hg10 mi
8:35 am73 °FSunny.8 mph9%30.32 "Hg10 mi
8:15 am70 °FSunny.9 mph10%30.32 "Hg10 mi
7:55 am70 °FSunny.8 mph10%30.32 "Hg10 mi
7:35 am68 °FSunny.12 mph10%30.31 "Hg10 mi
6:55 am64 °FSunny.16 mph12%30.30 "Hg10 mi
6:35 am64 °FSunny.16 mph13%30.30 "Hg10 mi
6:15 am64 °FClear.14 mph13%30.30 "Hg10 mi
5:55 am64 °FClear.15 mph13%30.29 "Hg10 mi
5:35 am64 °FClear.17 mph14%30.29 "Hg10 mi
5:15 am64 °FClear.16 mph14%30.28 "Hg10 mi
4:55 am64 °FClear.16 mph14%30.28 "Hg10 mi
4:35 am66 °FClear.15 mph13%30.28 "Hg10 mi
4:15 am66 °FClear.16 mph13%30.27 "Hg10 mi
3:55 am64 °FClear.15 mph15%30.27 "Hg10 mi
3:35 am66 °FClear.13 mph14%30.27 "Hg10 mi
2:55 am66 °FClear.18 mph14%30.26 "Hg10 mi
2:35 am66 °FClear.17 mph14%30.27 "Hg10 mi
2:15 am66 °FClear.17 mph14%30.27 "Hg10 mi
1:55 am66 °FClear.16 mph14%30.27 "Hg10 mi
1:35 am68 °FClear.17 mph13%30.27 "Hg10 mi
1:15 am68 °FClear.17 mph13%30.27 "Hg10 mi
12:55 am68 °FClear.21 mph13%30.26 "Hg10 mi
12:35 am68 °FClear.18 mph13%30.26 "Hg10 mi
11:55 pm
Mon, Sep 28
68 °FClear.17 mph13%30.27 "Hg10 mi
11:15 pm70 °FClear.15 mph13%30.26 "Hg10 mi
Weather by CustomWeather, © 2020

See weather overview